Weather History for Sierra Vista, AZ

Change the Weather History Date:

Tuesday, April 22, 2014

  Actual Average Record
Temperature  
Mean Temperature 72 °F -  
Max Temperature 84 °F 75 °F 93 °F (2012)
Min Temperature 59 °F 53 °F 39 °F (1983)
Cooling Degree Days 6    
Growing Degree Days 22 (Base 50)    
Moisture  
Dew Point 26 °F    
Average Humidity 20    
Maximum Humidity 36    
Minimum Humidity 10    
Precipitation  
Precipitation 0.00 in - - ()
Sea Level Pressure  
Sea Level Pressure 29.82 in    
Wind  
Wind Speed 9 mph (SW)    
Max Wind Speed 18 mph    
Max Gust Speed 28 mph    
Visibility 10 miles    
Events      
Averages and records for this station are not official NWS values.
T = Trace of Precipitation, MM = Missing Value Source: NWS Daily Summary

Daily Weather History Graph

Daily Weather History Graph

Search for Another Location

Airport:

Trip Planner

Search our weather history database for the weather conditions in past years. The results will help you decide how hot, cold, wet, or windy it might be!

Date:

Astronomy

Apr. 22, 2014 Rise Set
Actual Time 5:45 AM MST 6:55 PM MST
Civil Twilight 5:19 AM MST 7:20 PM MST
Nautical Twilight 4:49 AM MST 7:50 PM MST
Astronomical Twilight 4:18 AM MST 8:21 PM MST
Moon 1:10 AM MST (4/22) 12:25 PM MST (4/22)
Length of Visible Light 14h 00m
Length of Day
13h 09m
Last Quarter, 45% of the Moon is Illuminated
Apr 22
Last Quarter
Apr 28
New
May 6
First Quarter
May 14
Full
May 21
Last Quarter

Hourly Weather History & Observations

Time (MST) Temp. Dew Point Humidity Pressure Visibility Wind Dir Wind Speed Gust Speed Precip Events Conditions
12:55 AM 66.2 °F 33.8 °F 30% 29.91 in 10.0 mi WSW 11.5 mph - N/A   Clear
1:55 AM 60.8 °F 33.8 °F 36% 29.91 in 10.0 mi WSW 6.9 mph - N/A   Clear
2:55 AM 62.6 °F 33.8 °F 34% 29.90 in 10.0 mi WSW 5.8 mph - N/A   Clear
3:55 AM 62.6 °F 30.2 °F 30% 29.89 in 10.0 mi SW 6.9 mph - N/A   Partly Cloudy
4:55 AM 59.0 °F 30.2 °F 34% 29.89 in 10.0 mi Calm Calm - N/A   Scattered Clouds
5:55 AM 59.0 °F 30.2 °F 34% 29.90 in 10.0 mi South 8.1 mph - N/A   Scattered Clouds
6:55 AM 62.6 °F 32.0 °F 32% 29.91 in 10.0 mi Variable 2.3 mph - N/A   Scattered Clouds
7:55 AM 71.6 °F 30.2 °F 22% 29.90 in 10.0 mi SE 5.8 mph - N/A   Scattered Clouds
8:55 AM 75.2 °F 30.2 °F 19% 29.89 in 10.0 mi NE 6.9 mph - N/A   Mostly Cloudy
9:55 AM 78.8 °F 30.2 °F 17% 29.87 in 10.0 mi Variable 4.6 mph - N/A   Mostly Cloudy
10:55 AM 82.4 °F 26.6 °F 13% 29.84 in 10.0 mi SSW 10.4 mph 21.9 mph N/A   Mostly Cloudy
11:55 AM 82.4 °F 24.8 °F 12% 29.82 in 10.0 mi South 13.8 mph 26.5 mph N/A   Mostly Cloudy
12:55 PM 84.2 °F 23.0 °F 11% 29.80 in 10.0 mi SW 17.3 mph 23.0 mph N/A   Mostly Cloudy
1:55 PM 84.2 °F 24.8 °F 11% 29.79 in 10.0 mi South 9.2 mph 19.6 mph N/A   Mostly Cloudy
2:55 PM 84.2 °F 24.8 °F 11% 29.76 in 10.0 mi SW 16.1 mph 27.6 mph N/A   Mostly Cloudy
3:25 PM 82.4 °F 23.0 °F 11% 29.75 in 10.0 mi SW 17.3 mph 27.6 mph N/A   Mostly Cloudy
3:55 PM 82.4 °F 23.0 °F 11% 29.75 in 10.0 mi SW 17.3 mph 27.6 mph N/A   Mostly Cloudy
4:55 PM 80.6 °F 19.4 °F 10% 29.75 in 10.0 mi SW 10.4 mph 21.9 mph N/A   Mostly Cloudy
5:55 PM 78.8 °F 21.2 °F 12% 29.77 in 10.0 mi SSW 18.4 mph - N/A   Mostly Cloudy
6:55 PM 75.2 °F 19.4 °F 12% 29.76 in 10.0 mi SW 13.8 mph - N/A   Mostly Cloudy
7:55 PM 71.6 °F 19.4 °F 14% 29.76 in 10.0 mi SW 9.2 mph - N/A   Mostly Cloudy
8:55 PM 71.6 °F 19.4 °F 14% 29.76 in 10.0 mi SW 11.5 mph - N/A   Mostly Cloudy
9:55 PM 68.0 °F 24.8 °F 20% 29.78 in 10.0 mi SW 11.5 mph - N/A   Mostly Cloudy
10:55 PM 66.2 °F 26.6 °F 23% 29.77 in 10.0 mi WNW 8.1 mph - N/A   Overcast
11:55 PM 64.4 °F 26.6 °F 24% 29.76 in 10.0 mi West 9.2 mph - N/A   Mostly Cloudy